QPF
0.03 0.02 0.01 0.02 0.02 0.02 0.01 0.01 0.01 0.01 0.01 0.01 0.01 0.01 0.02 0.01 0.01 0.01 0.01 0.01 0.01 0.01 0.01 0.00 0.01 0.01 0.01 0.00 0.00 0.00 0.00 0.00 0.00 0.00 0.00 0.00 0.00 0.00 0.00 0.00 0.00 0.00 0.01
0.02 0.02 0.01 0.01 0.01 0.02 0.02 0.02 0.01 0.01 0.01 0.01 0.01 0.01 0.01 0.01 0.01 0.01 0.01 0.01 0.01 0.02 0.02 0.02 0.02 0.01 0.01 0.00 0.00 0.00 0.00 0.00 0.00 0.00 0.00 0.00 0.00 0.00 0.00 0.00 0.01 0.00 0.01
0.01 0.02 0.02 0.01 0.01 0.01 0.01 0.01 0.01 0.00 0.01 0.01 0.01 0.01 0.01 0.01 0.02 0.02 0.02 0.02 0.03 0.03 0.03 0.03 0.02 0.02 0.01 0.01 0.01 0.01 0.01 0.01 0.01 0.00 0.00 0.00 0.00 0.00 0.00 0.00 0.01 0.01 0.01
0.01 0.01 0.01 0.01 0.01 0.01 0.01 0.01 0.00 0.00 0.01 0.01 0.01 0.01 0.01 0.01 0.01 0.02 0.02 0.03 0.03 0.03 0.03 0.03 0.02 0.02 0.01 0.01 0.01 0.01 0.01 0.01 0.00 0.00 0.00 0.00 0.00 0.00 0.00 0.00 0.00 0.00 0.00
0.01 0.01 0.01 0.01 0.02 0.01 0.01 0.00 0.00 0.00 0.01 0.01 0.01 0.01 0.01 0.01 0.01 0.01 0.01 0.01 0.02 0.02 0.02 0.02 0.02 0.01 0.01 0.01 0.01 0.01 0.00 0.00 0.00 0.00 0.00 0.00 0.00 0.00 0.00 0.00 0.00 0.00 0.00
0.00 0.00 0.01 0.01 0.01 0.01 0.01 0.01 0.01 0.00 0.00 0.00 0.00 0.00 0.01 0.01 0.01 0.02 0.02 0.01 0.01 0.01 0.01 0.01 0.01 0.01 0.00 0.00 0.00 0.00 0.00 0.00 0.00 0.00 0.00 0.00 0.00 0.00 0.00 0.00 0.00 0.00 0.00
0.00 0.00 0.00 0.00 0.00 0.01 0.01 0.01 0.01 0.01 0.01 0.00 0.00 0.01 0.01 0.01 0.01 0.01 0.01 0.01 0.00 0.00 0.00 0.01 0.01 0.00 0.00 0.00 0.00 0.00 0.00 0.00 0.00 0.00 0.00 0.00 0.00 0.00 0.00 0.00 0.00 0.00 0.00
0.00 0.00 0.00 0.00 0.00 0.00 0.00 0.00 0.01 0.01 0.01 0.01 0.01 0.01 0.01 0.02 0.02 0.01 0.01 0.01 0.00 0.00 0.00 0.00 0.00 0.00 0.00 0.00 0.00 0.00 0.00 0.00 0.00 0.00 0.00 0.00 0.00 0.00 0.00 0.00 0.00 0.00 0.00
0.00 0.00 0.00 0.00 0.00 0.00 0.00 0.00 0.00 0.00 0.01 0.01 0.02 0.02 0.02 0.02 0.01 0.01 0.01 0.00 0.00 0.00 0.00 0.00 0.00 0.00 0.00 0.00 0.00 0.00 0.00 0.00 0.00 0.00 0.00 0.00 0.00 0.00 0.00 0.00 0.00 0.00 0.00
0.00 0.01 0.01 0.01 0.00 0.00 0.00 0.01 0.01 0.01 0.02 0.02 0.02 0.02 0.02 0.02 0.01 0.01 0.01 0.00 0.00 0.00 0.00 0.00 0.00 0.01 0.01 0.00 0.00 0.00 0.00 0.00 0.00 0.00 0.00 0.00 0.00 0.00 0.00 0.00 0.00 0.00 0.00
0.01 0.01 0.01 0.00 0.01 0.01 0.00 0.00 0.01 0.01 0.01 0.01 0.01 0.02 0.01 0.01 0.01 0.01 0.01 0.01 0.00 0.00 0.00 0.00 0.01 0.01 0.01 0.01 0.01 0.00 0.00 0.00 0.00 0.00 0.00 0.00 0.00 0.00 0.00 0.00 0.00 0.00 0.00
0.01 0.01 0.01 0.01 0.01 0.00 0.00 0.00 0.00 0.00 0.01 0.01 0.01 0.01 0.02 0.01 0.01 0.00 0.00 0.01 0.01 0.01 0.01 0.01 0.01 0.01 0.01 0.01 0.01 0.00 0.00 0.00 0.00 0.00 0.00 0.00 0.00 0.00 0.00 0.00 0.00 0.00 0.00
0.01 0.01 0.01 0.01 0.01 0.01 0.00 0.00 0.00 0.00 0.00 0.01 0.01 0.02 0.03 0.02 0.01 0.01 0.01 0.01 0.01 0.01 0.01 0.01 0.01 0.01 0.01 0.01 0.00 0.00 0.00 0.00 0.00 0.00 0.00 0.00 0.01 0.01 0.01 0.01 0.00 0.00 0.00
0.01 0.01 0.01 0.01 0.01 0.01 0.01 0.00 0.00 0.00 0.01 0.01 0.01 0.01 0.02 0.02 0.02 0.02 0.02 0.02 0.02 0.01 0.01 0.01 0.01 0.01 0.01 0.01 0.01 0.01 0.00 0.00 0.00 0.00 0.00 0.01 0.01 0.01 0.01 0.01 0.02 0.02 0.02
0.00 0.01 0.01 0.01 0.01 0.01 0.01 0.01 0.01 0.01 0.02 0.02 0.02 0.02 0.02 0.02 0.03 0.03 0.03 0.03 0.04 0.04 0.03 0.02 0.02 0.02 0.01 0.01 0.01 0.01 0.01 0.01 0.01 0.01 0.01 0.01 0.01 0.01 0.01 0.02 0.02 0.02 0.02
0.00 0.01 0.01 0.01 0.01 0.01 0.01 0.01 0.01 0.01 0.01 0.02 0.02 0.01 0.01 0.01 0.02 0.03 0.03 0.04 0.04 0.04 0.04 0.04 0.02 0.02 0.02 0.01 0.01 0.01 0.01 0.01 0.01 0.01 0.01 0.01 0.01 0.01 0.01 0.01 0.01 0.01 0.01
0.00 0.00 0.01 0.01 0.01 0.01 0.01 0.01 0.01 0.01 0.01 0.01 0.01 0.01 0.01 0.01 0.01 0.02 0.02 0.02 0.02 0.02 0.01 0.01 0.01 0.01 0.01 0.01 0.01 0.02 0.01 0.02 0.02 0.01 0.01 0.01 0.01 0.01 0.01 0.01 0.01 0.01 0.01
0.01 0.00 0.01 0.01 0.01 0.01 0.01 0.01 0.01 0.01 0.01 0.00 0.01 0.01 0.01 0.01 0.01 0.01 0.01 0.01 0.01 0.01 0.01 0.01 0.01 0.01 0.01 0.01 0.01 0.00 0.00 0.01 0.01 0.01 0.01 0.01 0.01 0.01 0.01 0.01 0.01 0.01 0.01
0.01 0.01 0.01 0.01 0.01 0.01 0.01 0.01 0.02 0.02 0.02 0.02 0.01 0.01 0.01 0.01 0.00 0.01 0.01 0.01 0.01 0.01 0.01 0.01 0.01 0.00 0.00 0.00 0.00 0.00 0.00 0.00 0.01 0.00 0.00 0.00 0.00 0.01 0.01 0.01 0.01 0.01 0.01
0.01 0.01 0.01 0.01 0.01 0.01 0.01 0.01 0.02 0.03 0.04 0.04 0.03 0.02 0.02 0.02 0.01 0.01 0.01 0.01 0.01 0.01 0.00 0.01 0.01 0.01 0.01 0.01 0.01 0.01 0.01 0.01 0.01 0.01 0.01 0.00 0.00 0.00 0.00 0.00 0.00 0.00 0.01
0.01 0.01 0.02 0.02 0.03 0.02 0.01 0.01 0.01 0.01 0.02 0.03 0.03 0.03 0.02 0.02 0.02 0.02 0.01 0.01 0.02 0.02 0.02 0.01 0.01 0.01 0.01 0.01 0.01 0.01 0.01 0.01 0.01 0.01 0.01 0.01 0.01 0.01 0.01 0.00 0.00 0.00 0.00
0.02 0.01 0.01 0.02 0.03 0.03 0.02 0.01 0.01 0.01 0.01 0.01 0.02 0.02 0.01 0.01 0.01 0.01 0.01 0.01 0.02 0.02 0.02 0.01 0.01 0.01 0.01 0.01 0.01 0.01 0.01 0.01 0.01 0.01 0.01 0.01 0.01 0.01 0.01 0.01 0.00 0.00 0.00
0.01 0.01 0.01 0.02 0.03 0.03 0.03 0.02 0.02 0.01 0.01 0.01 0.01 0.01 0.01 0.00 0.01 0.01 0.01 0.01 0.01 0.01 0.01 0.01 0.01 0.01 0.01 0.01 0.01 0.01 0.01 0.01 0.01 0.01 0.01 0.01 0.01 0.01 0.01 0.01 0.01 0.01 0.01
0.01 0.02 0.02 0.02 0.03 0.03 0.03 0.03 0.02 0.01 0.01 0.01 0.01 0.01 0.01 0.01 0.01 0.01 0.00 0.00 0.00 0.01 0.01 0.01 0.01 0.01 0.01 0.01 0.01 0.01 0.00 0.00 0.01 0.01 0.01 0.01 0.01 0.01 0.01 0.01 0.01 0.01 0.01
0.01 0.02 0.02 0.02 0.02 0.02 0.03 0.02 0.02 0.01 0.01 0.01 0.01 0.01 0.01 0.00 0.00 0.00 0.00 0.00 0.01 0.01 0.01 0.01 0.01 0.01 0.01 0.02 0.02 0.01 0.01 0.01 0.01 0.01 0.01 0.02 0.02 0.01 0.01 0.01 0.01 0.01 0.01
0.01 0.02 0.02 0.02 0.02 0.02 0.02 0.02 0.02 0.01 0.01 0.01 0.01 0.01 0.00 0.00 0.00 0.00 0.00 0.00 0.01 0.01 0.01 0.01 0.01 0.01 0.01 0.02 0.03 0.03 0.03 0.02 0.01 0.01 0.01 0.01 0.01 0.01 0.01 0.01 0.01 0.02 0.02
MSLP
1021.41 1021.51 1021.70 1021.94 1022.21 1022.49 1022.76 1023.00 1023.23 1023.43 1023.62 1023.81 1023.99 1024.19 1024.38 1024.59 1024.79 1025.00 1025.19 1025.37 1025.51 1025.63 1025.70 1025.72 1025.71 1025.66 1025.61 1025.56 1025.55 1025.59 1025.71 1025.89 1026.13 1026.39 1026.65 1026.85 1026.97 1026.99 1026.89 1026.68 1026.38 1026.02 1025.65
1021.58 1021.62 1021.76 1021.96 1022.21 1022.49 1022.77 1023.04 1023.31 1023.55 1023.78 1024.01 1024.22 1024.43 1024.64 1024.85 1025.06 1025.28 1025.49 1025.69 1025.86 1025.99 1026.08 1026.11 1026.09 1026.02 1025.94 1025.87 1025.83 1025.85 1025.95 1026.11 1026.34 1026.61 1026.87 1027.09 1027.22 1027.25 1027.16 1026.96 1026.67 1026.32 1025.94
1021.78 1021.77 1021.84 1022.00 1022.21 1022.47 1022.76 1023.05 1023.34 1023.62 1023.89 1024.13 1024.36 1024.58 1024.79 1025.00 1025.22 1025.44 1025.66 1025.87 1026.06 1026.22 1026.33 1026.39 1026.40 1026.35 1026.28 1026.21 1026.17 1026.18 1026.26 1026.41 1026.63 1026.89 1027.14 1027.36 1027.50 1027.54 1027.46 1027.27 1026.99 1026.65 1026.29
1022.01 1021.93 1021.94 1022.04 1022.21 1022.44 1022.72 1023.02 1023.33 1023.64 1023.93 1024.20 1024.45 1024.67 1024.87 1025.08 1025.28 1025.49 1025.71 1025.93 1026.14 1026.33 1026.48 1026.58 1026.63 1026.62 1026.58 1026.53 1026.50 1026.51 1026.59 1026.73 1026.93 1027.17 1027.41 1027.61 1027.75 1027.80 1027.73 1027.56 1027.30 1026.99 1026.64
1022.24 1022.10 1022.04 1022.06 1022.18 1022.37 1022.63 1022.93 1023.26 1023.60 1023.92 1024.21 1024.48 1024.70 1024.91 1025.09 1025.28 1025.48 1025.68 1025.91 1026.13 1026.35 1026.54 1026.68 1026.78 1026.82 1026.82 1026.81 1026.80 1026.81 1026.88 1027.01 1027.18 1027.39 1027.61 1027.80 1027.94 1027.99 1027.94 1027.80 1027.57 1027.28 1026.96
1022.45 1022.23 1022.09 1022.05 1022.10 1022.25 1022.48 1022.78 1023.12 1023.48 1023.84 1024.17 1024.45 1024.70 1024.90 1025.09 1025.26 1025.43 1025.63 1025.85 1026.08 1026.31 1026.53 1026.72 1026.86 1026.95 1026.99 1027.01 1027.02 1027.04 1027.10 1027.20 1027.35 1027.54 1027.73 1027.91 1028.04 1028.10 1028.08 1027.97 1027.78 1027.53 1027.23
1022.62 1022.32 1022.09 1021.96 1021.94 1022.03 1022.24 1022.53 1022.88 1023.28 1023.67 1024.04 1024.37 1024.64 1024.86 1025.05 1025.22 1025.38 1025.57 1025.78 1026.01 1026.25 1026.49 1026.70 1026.88 1027.01 1027.09 1027.13 1027.15 1027.18 1027.23 1027.31 1027.44 1027.60 1027.77 1027.94 1028.07 1028.15 1028.16 1028.08 1027.94 1027.73 1027.47
1022.72 1022.33 1022.02 1021.80 1021.69 1021.73 1021.89 1022.16 1022.53 1022.95 1023.39 1023.81 1024.18 1024.50 1024.76 1024.97 1025.15 1025.32 1025.50 1025.70 1025.93 1026.18 1026.42 1026.65 1026.85 1027.00 1027.11 1027.17 1027.21 1027.24 1027.29 1027.36 1027.47 1027.61 1027.77 1027.94 1028.08 1028.18 1028.22 1028.19 1028.08 1027.91 1027.68
1022.75 1022.28 1021.87 1021.55 1021.36 1021.33 1021.44 1021.69 1022.05 1022.50 1022.97 1023.44 1023.88 1024.25 1024.56 1024.81 1025.02 1025.21 1025.40 1025.61 1025.84 1026.08 1026.33 1026.57 1026.78 1026.95 1027.08 1027.16 1027.21 1027.26 1027.31 1027.38 1027.49 1027.63 1027.79 1027.97 1028.12 1028.24 1028.31 1028.31 1028.24 1028.10 1027.89
1022.72 1022.16 1021.66 1021.25 1020.97 1020.85 1020.91 1021.12 1021.47 1021.92 1022.42 1022.94 1023.43 1023.86 1024.23 1024.54 1024.80 1025.03 1025.24 1025.47 1025.71 1025.96 1026.21 1026.46 1026.68 1026.87 1027.02 1027.13 1027.20 1027.27 1027.35 1027.44 1027.56 1027.71 1027.89 1028.07 1028.24 1028.38 1028.46 1028.49 1028.43 1028.31 1028.11
1022.62 1021.99 1021.41 1020.91 1020.55 1020.35 1020.33 1020.49 1020.80 1021.24 1021.75 1022.29 1022.83 1023.32 1023.75 1024.13 1024.45 1024.73 1024.99 1025.25 1025.51 1025.78 1026.06 1026.32 1026.56 1026.77 1026.95 1027.09 1027.21 1027.32 1027.44 1027.56 1027.72 1027.89 1028.08 1028.28 1028.45 1028.59 1028.68 1028.70 1028.64 1028.51 1028.31
1022.46 1021.78 1021.13 1020.56 1020.12 1019.84 1019.74 1019.83 1020.09 1020.49 1020.98 1021.53 1022.09 1022.63 1023.13 1023.57 1023.96 1024.31 1024.63 1024.94 1025.25 1025.56 1025.86 1026.15 1026.43 1026.68 1026.90 1027.09 1027.27 1027.44 1027.60 1027.78 1027.97 1028.17 1028.38 1028.58 1028.75 1028.87 1028.94 1028.93 1028.85 1028.69 1028.45
1022.23 1021.53 1020.84 1020.21 1019.70 1019.35 1019.17 1019.18 1019.37 1019.71 1020.16 1020.69 1021.26 1021.83 1022.38 1022.88 1023.35 1023.77 1024.17 1024.55 1024.91 1025.27 1025.62 1025.96 1026.28 1026.59 1026.87 1027.13 1027.37 1027.61 1027.84 1028.08 1028.31 1028.54 1028.76 1028.95 1029.09 1029.17 1029.19 1029.13 1029.00 1028.79 1028.52
1021.92 1021.22 1020.52 1019.86 1019.31 1018.89 1018.64 1018.56 1018.66 1018.93 1019.32 1019.82 1020.38 1020.96 1021.54 1022.10 1022.64 1023.14 1023.62 1024.08 1024.51 1024.94 1025.35 1025.75 1026.13 1026.50 1026.86 1027.19 1027.51 1027.82 1028.13 1028.42 1028.69 1028.94 1029.16 1029.32 1029.42 1029.45 1029.40 1029.27 1029.07 1028.80 1028.48
1021.49 1020.82 1020.14 1019.49 1018.91 1018.44 1018.12 1017.97 1017.99 1018.17 1018.49 1018.94 1019.47 1020.05 1020.66 1021.28 1021.88 1022.46 1023.02 1023.56 1024.08 1024.58 1025.06 1025.53 1025.98 1026.42 1026.85 1027.26 1027.66 1028.04 1028.41 1028.75 1029.06 1029.32 1029.52 1029.65 1029.69 1029.66 1029.53 1029.32 1029.05 1028.72 1028.35
1020.93 1020.31 1019.67 1019.04 1018.46 1017.97 1017.60 1017.38 1017.33 1017.43 1017.69 1018.08 1018.58 1019.16 1019.79 1020.45 1021.11 1021.76 1022.40 1023.02 1023.62 1024.19 1024.75 1025.28 1025.80 1026.31 1026.81 1027.29 1027.76 1028.21 1028.63 1029.02 1029.35 1029.61 1029.79 1029.88 1029.87 1029.77 1029.57 1029.29 1028.95 1028.57 1028.17
1020.20 1019.65 1019.07 1018.48 1017.92 1017.43 1017.04 1016.78 1016.66 1016.71 1016.91 1017.26 1017.73 1018.30 1018.95 1019.64 1020.35 1021.08 1021.79 1022.48 1023.15 1023.79 1024.41 1025.01 1025.59 1026.16 1026.72 1027.26 1027.79 1028.29 1028.76 1029.17 1029.52 1029.78 1029.95 1030.00 1029.95 1029.79 1029.53 1029.20 1028.82 1028.41 1027.99
1019.31 1018.83 1018.31 1017.77 1017.25 1016.78 1016.38 1016.11 1015.96 1015.97 1016.14 1016.45 1016.91 1017.49 1018.15 1018.87 1019.64 1020.41 1021.19 1021.94 1022.67 1023.37 1024.05 1024.70 1025.33 1025.94 1026.55 1027.14 1027.71 1028.25 1028.75 1029.19 1029.55 1029.82 1029.97 1030.01 1029.92 1029.73 1029.45 1029.10 1028.70 1028.28 1027.87
1018.26 1017.84 1017.38 1016.90 1016.42 1015.98 1015.61 1015.34 1015.20 1015.20 1015.35 1015.66 1016.12 1016.70 1017.39 1018.15 1018.95 1019.78 1020.60 1021.41 1022.19 1022.93 1023.64 1024.33 1025.00 1025.65 1026.28 1026.91 1027.51 1028.08 1028.61 1029.07 1029.44 1029.72 1029.87 1029.91 1029.83 1029.64 1029.36 1029.01 1028.63 1028.23 1027.85
1017.06 1016.69 1016.28 1015.86 1015.44 1015.04 1014.71 1014.47 1014.35 1014.37 1014.54 1014.86 1015.34 1015.95 1016.66 1017.45 1018.30 1019.16 1020.03 1020.87 1021.68 1022.46 1023.20 1023.91 1024.60 1025.27 1025.93 1026.57 1027.20 1027.79 1028.34 1028.82 1029.21 1029.51 1029.68 1029.74 1029.68 1029.52 1029.27 1028.96 1028.62 1028.27 1027.93
1015.76 1015.41 1015.05 1014.67 1014.31 1013.97 1013.69 1013.50 1013.42 1013.48 1013.69 1014.05 1014.56 1015.20 1015.95 1016.78 1017.65 1018.56 1019.45 1020.33 1021.16 1021.96 1022.72 1023.44 1024.14 1024.82 1025.49 1026.15 1026.79 1027.41 1027.97 1028.48 1028.90 1029.22 1029.43 1029.52 1029.51 1029.39 1029.20 1028.95 1028.67 1028.38 1028.10
1014.38 1014.05 1013.72 1013.39 1013.07 1012.80 1012.58 1012.45 1012.43 1012.54 1012.80 1013.21 1013.77 1014.45 1015.24 1016.10 1017.02 1017.95 1018.87 1019.77 1020.63 1021.44 1022.21 1022.94 1023.65 1024.34 1025.02 1025.69 1026.35 1026.97 1027.56 1028.09 1028.54 1028.89 1029.14 1029.29 1029.33 1029.27 1029.14 1028.96 1028.75 1028.52 1028.30
1012.97 1012.65 1012.34 1012.05 1011.79 1011.57 1011.42 1011.36 1011.41 1011.58 1011.90 1012.37 1012.97 1013.70 1014.53 1015.44 1016.38 1017.34 1018.29 1019.21 1020.09 1020.92 1021.70 1022.45 1023.17 1023.87 1024.56 1025.24 1025.90 1026.54 1027.15 1027.70 1028.18 1028.57 1028.86 1029.05 1029.15 1029.16 1029.09 1028.97 1028.82 1028.66 1028.48
1011.56 1011.25 1010.97 1010.71 1010.50 1010.35 1010.26 1010.27 1010.38 1010.62 1011.01 1011.53 1012.18 1012.96 1013.83 1014.77 1015.76 1016.75 1017.73 1018.67 1019.57 1020.42 1021.22 1021.98 1022.72 1023.43 1024.13 1024.82 1025.50 1026.16 1026.78 1027.35 1027.85 1028.28 1028.61 1028.84 1028.98 1029.04 1029.03 1028.97 1028.87 1028.75 1028.61
1010.19 1009.89 1009.64 1009.43 1009.27 1009.17 1009.14 1009.21 1009.39 1009.69 1010.13 1010.71 1011.41 1012.23 1013.15 1014.13 1015.14 1016.17 1017.18 1018.15 1019.08 1019.96 1020.79 1021.57 1022.33 1023.06 1023.78 1024.49 1025.18 1025.85 1026.48 1027.07 1027.59 1028.04 1028.40 1028.66 1028.84 1028.93 1028.96 1028.93 1028.87 1028.78 1028.67
1008.88 1008.60 1008.38 1008.21 1008.10 1008.06 1008.09 1008.22 1008.45 1008.81 1009.30 1009.92 1010.68 1011.54 1012.49 1013.50 1014.56 1015.62 1016.67 1017.68 1018.64 1019.55 1020.42 1021.24 1022.02 1022.78 1023.51 1024.24 1024.94 1025.62 1026.26 1026.86 1027.39 1027.85 1028.23 1028.51 1028.71 1028.83 1028.88 1028.88 1028.83 1028.76 1028.67
Thickness
5688 5686 5684 5683 5682 5681 5679 5678 5677 5676 5674 5673 5671 5670 5667 5666 5664 5662 5661 5659 5657 5655 5654 5653 5652 5650 5649 5648 5646 5644 5642 5640 5636 5633 5633 5634 5634 5634 5634 5634 5633 5632 5630
5687 5685 5684 5682 5681 5679 5678 5677 5676 5674 5673 5672 5670 5668 5666 5664 5662 5660 5658 5657 5655 5652 5651 5650 5649 5649 5646 5645 5643 5641 5639 5638 5635 5631 5629 5629 5629 5629 5628 5628 5627 5626 5624
5686 5684 5682 5681 5679 5678 5677 5676 5674 5673 5671 5670 5668 5665 5664 5662 5660 5658 5656 5654 5653 5651 5649 5647 5646 5645 5643 5642 5640 5638 5636 5635 5632 5629 5625 5624 5623 5623 5622 5621 5621 5619 5618
5685 5683 5681 5680 5679 5677 5676 5674 5673 5671 5669 5667 5666 5664 5662 5660 5658 5656 5653 5651 5650 5649 5647 5645 5643 5642 5641 5639 5638 5635 5633 5631 5628 5625 5621 5619 5618 5617 5615 5614 5613 5612 5611
5682 5681 5679 5678 5677 5675 5674 5672 5671 5669 5667 5665 5663 5661 5660 5658 5656 5654 5651 5648 5646 5645 5643 5642 5641 5640 5639 5637 5635 5632 5630 5627 5623 5620 5617 5614 5612 5611 5609 5608 5606 5605 5604
5680 5679 5678 5676 5675 5673 5671 5669 5668 5666 5664 5662 5660 5659 5657 5656 5655 5652 5649 5646 5643 5641 5640 5638 5638 5637 5636 5635 5633 5630 5628 5624 5619 5616 5612 5610 5608 5607 5604 5602 5599 5598 5597
5677 5676 5675 5673 5672 5670 5669 5666 5664 5662 5661 5659 5657 5656 5654 5653 5652 5650 5647 5644 5641 5639 5637 5635 5635 5633 5632 5630 5628 5627 5624 5621 5619 5615 5610 5607 5605 5604 5600 5597 5594 5592 5590
5674 5673 5672 5670 5669 5667 5665 5663 5661 5659 5657 5655 5654 5652 5651 5650 5649 5647 5644 5641 5638 5635 5634 5632 5630 5629 5628 5625 5623 5620 5618 5616 5614 5611 5609 5606 5603 5600 5597 5594 5590 5586 5584
5670 5669 5668 5667 5665 5663 5662 5660 5658 5656 5654 5652 5650 5648 5647 5646 5645 5643 5640 5636 5633 5631 5629 5628 5626 5625 5624 5622 5618 5614 5612 5610 5608 5606 5604 5601 5598 5595 5591 5587 5583 5579 5577
5667 5666 5665 5664 5662 5660 5658 5656 5654 5653 5651 5649 5646 5645 5643 5642 5641 5639 5636 5633 5629 5626 5625 5624 5623 5621 5619 5617 5614 5610 5606 5605 5602 5600 5597 5595 5592 5588 5585 5581 5578 5573 5570
5663 5662 5661 5659 5658 5656 5654 5652 5650 5648 5646 5644 5642 5640 5639 5637 5636 5635 5632 5629 5626 5623 5620 5619 5618 5617 5615 5612 5609 5606 5604 5600 5596 5594 5590 5587 5584 5581 5578 5575 5572 5568 5564
5657 5656 5655 5654 5653 5652 5649 5646 5644 5643 5640 5638 5636 5634 5633 5632 5631 5630 5628 5625 5623 5619 5617 5615 5613 5611 5609 5607 5604 5601 5598 5594 5590 5586 5583 5579 5576 5574 5572 5568 5565 5562 5559
5650 5649 5648 5647 5646 5645 5643 5640 5638 5636 5635 5633 5631 5629 5627 5626 5625 5624 5623 5620 5618 5615 5612 5610 5608 5605 5603 5600 5597 5594 5591 5586 5582 5578 5575 5572 5570 5567 5564 5561 5558 5554 5551
5643 5642 5641 5640 5638 5637 5636 5635 5632 5630 5628 5627 5625 5624 5622 5620 5619 5618 5616 5614 5612 5609 5606 5603 5601 5598 5595 5592 5589 5585 5582 5579 5575 5571 5568 5565 5562 5559 5556 5553 5550 5547 5543
5636 5635 5634 5633 5631 5629 5628 5627 5627 5626 5625 5623 5621 5619 5617 5615 5615 5614 5611 5608 5606 5603 5599 5595 5591 5588 5585 5582 5580 5577 5574 5571 5567 5563 5560 5557 5554 5551 5548 5545 5541 5538 5535
5628 5627 5626 5625 5624 5622 5621 5619 5619 5619 5619 5618 5617 5615 5614 5613 5611 5609 5606 5604 5600 5597 5592 5587 5584 5581 5578 5575 5572 5569 5566 5563 5560 5557 5553 5550 5547 5544 5541 5538 5534 5530 5527
5621 5620 5619 5618 5617 5615 5614 5613 5611 5610 5610 5609 5609 5608 5607 5605 5604 5601 5599 5596 5592 5589 5584 5580 5577 5574 5572 5569 5566 5563 5560 5557 5554 5550 5547 5544 5541 5537 5534 5530 5526 5522 5519
5613 5613 5612 5611 5609 5608 5607 5606 5604 5602 5600 5599 5599 5599 5598 5597 5595 5593 5590 5586 5581 5579 5576 5573 5570 5568 5565 5562 5559 5556 5553 5550 5546 5543 5540 5537 5534 5531 5527 5523 5519 5515 5512
5605 5604 5603 5602 5601 5600 5599 5597 5596 5594 5593 5591 5589 5589 5589 5587 5585 5583 5580 5576 5574 5571 5568 5566 5563 5560 5558 5555 5553 5550 5547 5543 5540 5537 5534 5530 5527 5523 5519 5516 5512 5508 5504
5596 5597 5596 5594 5593 5591 5590 5589 5587 5586 5584 5582 5581 5580 5578 5576 5573 5572 5570 5568 5566 5564 5561 5559 5556 5553 5551 5548 5545 5542 5539 5536 5533 5530 5527 5523 5520 5516 5512 5508 5504 5500 5497
5587 5587 5587 5585 5584 5583 5582 5581 5579 5578 5576 5574 5573 5573 5571 5568 5567 5564 5562 5560 5558 5556 5554 5552 5549 5546 5543 5540 5538 5535 5532 5529 5526 5523 5520 5516 5513 5509 5505 5501 5497 5493 5489
5579 5577 5576 5575 5575 5574 5573 5572 5571 5569 5568 5566 5565 5563 5562 5560 5559 5557 5555 5553 5551 5549 5547 5545 5542 5539 5537 5533 5530 5527 5525 5522 5519 5516 5513 5509 5506 5502 5498 5494 5490 5485 5481
5569 5567 5566 5565 5565 5564 5563 5562 5561 5560 5559 5557 5556 5555 5552 5551 5549 5548 5547 5545 5543 5541 5539 5537 5534 5532 5529 5526 5523 5520 5518 5516 5513 5510 5506 5503 5499 5495 5491 5487 5483 5479 5475
5559 5558 5557 5556 5555 5554 5554 5553 5552 5551 5550 5548 5547 5546 5544 5543 5541 5540 5539 5537 5535 5533 5531 5529 5527 5525 5522 5519 5516 5514 5512 5509 5506 5503 5500 5496 5493 5489 5484 5480 5476 5473 5468
5549 5548 5547 5546 5545 5545 5544 5544 5543 5542 5541 5540 5539 5537 5535 5534 5533 5531 5530 5528 5526 5525 5523 5521 5519 5517 5515 5512 5509 5507 5505 5502 5499 5496 5492 5489 5485 5482 5478 5474 5470 5465 5461
5539 5539 5537 5536 5536 5535 5535 5535 5534 5533 5532 5531 5530 5528 5527 5525 5524 5523 5521 5519 5517 5516 5514 5513 5511 5509 5507 5505 5502 5500 5498 5495 5492 5488 5485 5481 5478 5474 5470 5467 5463 5459 5455